Lapse_Rate
9.5 8.9 6.3 6.2 5.8 5.6 5.7 5.6 5.4 5.6 5.6 6.3 6.4 6.6 6.2 6.1 6.3 6.4 6.2 6.2 6.9 7.0 6.8 7.4 7.2 6.5 6.8 6.2 5.8 5.9 5.8 5.6 5.6 5.4 5.8 6.2 6.5 6.7 6.3 6.7 8.8 8.0 6.4
9.8 8.0 6.2 6.1 5.8 5.9 5.9 5.3 5.3 6.0 6.1 6.1 6.4 6.6 6.4 6.3 6.5 6.3 6.1 6.2 7.2 7.2 6.8 8.0 8.2 5.9 5.6 5.4 5.2 5.1 5.1 4.9 4.9 5.1 6.0 6.1 6.4 6.7 7.0 6.6 7.1 6.8 6.7
9.5 8.3 7.3 6.1 5.6 5.8 5.6 5.2 5.1 5.8 6.2 6.2 6.6 6.3 6.5 6.4 6.4 6.2 6.0 5.6 5.9 6.5 7.9 8.0 7.7 5.6 5.3 4.9 4.7 4.5 4.2 4.4 4.4 4.9 7.2 9.5 7.1 6.1 6.3 6.3 7.3 7.1 6.9
9.4 8.3 8.8 5.9 5.7 5.7 5.4 5.6 5.7 5.9 6.3 6.4 6.3 6.3 6.4 6.5 6.4 6.2 5.7 5.5 6.1 7.9 7.4 6.2 5.7 5.1 5.0 4.8 4.6 4.5 4.1 3.8 3.9 5.5 9.4 9.6 8.3 5.2 5.3 5.5 6.4 7.4 7.2
9.4 9.0 8.4 6.0 5.9 5.8 5.4 5.9 6.1 6.1 6.2 6.4 6.3 6.1 6.3 6.5 6.6 6.0 5.5 6.3 6.8 6.8 5.7 5.2 5.2 5.2 5.0 4.9 4.8 4.6 4.1 3.7 4.7 7.7 7.5 8.0 8.3 5.3 5.0 5.1 5.8 5.4 6.2
9.6 9.0 5.4 5.9 6.0 5.6 5.3 6.0 6.2 6.4 6.3 6.4 6.2 6.1 6.3 6.7 6.0 5.5 5.5 6.5 5.1 6.6 5.4 5.0 5.1 5.2 5.1 5.0 5.0 4.5 4.0 3.8 5.5 7.1 7.7 6.7 7.0 5.4 5.4 5.2 5.1 5.2 5.4
9.5 9.0 6.7 5.7 5.8 5.5 5.2 5.8 6.3 6.3 6.4 6.4 6.2 6.5 6.8 6.7 5.7 4.8 4.6 4.8 4.7 5.5 4.7 5.0 4.9 4.9 4.9 5.0 4.7 4.4 3.8 4.2 7.7 7.3 7.8 8.7 6.4 5.6 5.5 5.2 5.2 5.2 5.2
9.3 8.6 8.2 5.7 5.6 5.5 5.4 5.6 6.1 6.3 6.3 6.2 6.3 7.0 5.9 5.3 4.4 4.0 4.3 4.3 4.6 4.8 4.6 5.0 4.8 4.7 4.6 4.7 4.5 3.9 3.6 4.6 8.0 7.9 7.6 8.2 5.5 5.7 5.5 5.3 5.1 5.1 5.2
9.4 9.2 8.0 7.1 6.3 5.5 5.2 5.5 5.8 6.0 5.9 6.4 6.6 6.8 5.4 4.8 4.1 3.8 4.1 4.2 4.5 4.7 4.8 4.5 4.8 4.7 4.6 4.4 4.2 4.0 3.7 4.4 9.4 7.9 8.3 9.2 5.4 5.9 5.6 5.5 5.5 5.4 5.3
8.5 9.4 7.4 8.4 8.2 7.6 6.6 5.2 5.1 5.2 5.5 6.0 6.1 5.2 4.9 3.8 4.0 3.7 3.8 4.1 4.2 4.0 4.0 4.1 4.2 4.5 4.5 4.3 4.1 3.9 3.9 4.8 9.2 7.6 8.3 7.8 5.2 5.9 5.8 5.6 5.7 5.7 5.5
7.6 8.5 8.4 9.3 9.7 9.5 9.1 6.3 4.9 4.4 4.6 5.2 4.6 3.9 4.2 5.7 4.9 4.3 4.8 3.9 3.8 3.7 3.9 4.0 3.9 3.8 3.6 3.9 3.8 3.8 4.4 8.4 8.8 8.9 9.3 5.4 5.0 6.2 5.9 5.7 5.7 5.7 5.5
6.4 6.5 8.1 9.8 10.0 9.3 8.9 7.0 7.4 6.6 6.8 8.4 8.0 6.1 9.1 7.2 7.5 7.5 4.1 3.3 3.4 3.5 3.4 3.7 3.7 3.5 4.1 7.2 6.3 4.7 8.2 7.9 8.3 8.3 8.8 5.3 5.0 6.0 6.6 6.1 5.9 5.8 5.5
5.1 5.0 7.4 9.7 9.8 9.8 9.2 7.1 7.3 9.3 9.5 9.4 9.3 9.4 9.3 8.2 5.1 5.7 5.6 5.1 5.6 4.0 6.0 5.0 5.2 6.9 7.2 7.5 7.5 8.6 7.8 8.0 9.5 8.5 7.4 5.3 4.8 5.9 6.7 7.1 6.8 6.2 6.0
3.6 5.0 6.2 8.4 9.7 9.9 9.2 9.1 7.4 7.6 9.5 9.5 8.7 7.6 6.6 7.1 6.7 7.6 8.5 7.7 7.1 6.9 7.3 7.1 7.9 7.5 7.0 7.1 7.8 8.6 8.2 8.3 9.0 8.8 8.7 6.1 5.5 5.8 6.8 7.3 7.3 7.1 6.9
4.8 4.7 5.3 6.6 7.4 8.6 8.9 9.6 9.0 8.0 8.4 8.2 7.7 6.7 6.8 6.7 6.9 6.6 6.8 6.6 6.6 6.4 6.8 7.1 7.1 7.4 7.4 7.6 8.0 8.6 9.3 9.7 9.6 9.5 9.3 6.9 6.5 5.5 5.9 6.8 7.2 7.4 7.3
5.1 4.8 4.3 6.3 6.3 7.0 7.1 7.0 8.3 8.9 7.7 6.7 7.2 7.0 7.0 7.2 7.1 6.7 6.8 6.6 6.7 6.5 6.8 7.1 7.5 7.8 8.6 8.6 9.6 9.2 9.5 9.6 9.6 9.6 9.6 9.4 7.3 6.3 5.1 5.9 6.6 7.2 7.6
6.2 5.4 4.8 5.1 5.7 6.8 6.5 6.2 6.1 6.7 7.7 7.2 6.8 7.0 6.8 6.7 6.8 6.2 6.9 6.7 6.9 6.7 7.1 7.2 7.5 7.7 8.0 8.0 8.7 8.6 9.5 9.7 9.7 9.7 9.7 9.6 8.6 7.0 6.4 5.5 6.2 6.9 7.7
6.5 4.7 4.8 5.3 4.5 7.2 6.8 6.1 5.8 5.7 5.8 6.5 8.1 6.8 6.4 6.2 6.1 6.4 7.1 8.0 7.8 7.5 7.4 7.9 8.0 8.1 9.1 9.0 9.7 9.8 9.9 9.7 9.7 9.7 9.6 9.7 9.6 9.5 8.6 6.8 6.1 5.8 6.3
6.7 5.5 4.6 5.1 5.5 6.5 6.5 6.0 5.6 5.3 6.1 6.5 6.3 6.2 6.1 6.0 5.8 6.2 6.8 7.8 7.5 7.6 7.9 7.8 8.1 8.9 9.5 9.5 9.5 9.7 9.8 9.8 9.9 9.7 9.8 9.7 9.5 8.5 9.1 8.8 6.1 5.6 5.9
6.0 5.9 6.5 5.7 6.5 6.2 6.6 6.3 6.0 5.7 6.0 5.9 5.7 6.2 5.8 5.9 5.8 6.1 6.9 8.0 8.1 8.2 8.3 8.1 8.7 9.0 9.6 9.4 9.4 9.5 9.7 9.9 9.9 9.9 9.7 9.0 8.3 7.1 7.5 7.7 7.9 8.3 5.9
4.9 5.5 6.5 5.7 5.8 6.2 6.8 6.6 6.5 5.8 5.0 5.3 5.4 6.0 6.5 6.5 6.8 6.3 6.8 8.1 8.2 8.4 8.7 8.8 8.9 9.2 8.7 9.4 9.2 9.3 9.4 9.7 9.7 8.1 8.0 7.9 8.0 7.4 7.2 7.3 7.6 8.9 6.0
5.0 4.9 5.1 6.1 5.8 6.0 6.6 7.2 7.2 6.4 5.4 5.4 5.4 5.8 6.1 6.7 6.2 6.3 6.7 7.8 8.2 8.5 8.6 8.7 8.4 8.6 9.3 8.8 8.8 8.7 8.2 8.8 9.3 7.1 7.5 7.4 7.5 7.4 7.0 6.2 6.6 6.8 6.7
4.4 4.9 5.1 5.1 4.9 4.8 5.1 5.9 7.0 6.3 6.3 5.6 6.0 6.5 6.6 5.6 5.6 5.2 5.5 5.1 6.4 7.4 6.9 5.8 5.2 6.0 7.4 7.3 7.4 8.7 8.0 7.7 8.6 9.3 8.0 7.4 7.6 7.7 7.0 6.2 6.0 5.8 5.6
5.5 5.5 5.6 4.5 4.8 5.2 4.3 5.3 6.4 6.8 6.8 6.2 6.3 5.2 3.5 3.6 4.1 4.2 4.3 4.1 4.1 4.2 4.8 4.9 4.9 5.8 6.8 7.2 6.9 6.5 7.0 7.6 8.1 8.0 9.0 8.4 7.3 7.4 7.2 7.0 6.7 5.7 5.4
5.8 5.2 5.0 5.2 4.9 4.4 4.8 3.7 5.6 5.5 4.0 4.0 3.6 2.5 2.8 2.0 3.7 4.0 4.1 3.6 3.1 3.2 3.1 3.3 2.9 3.7 4.7 5.6 6.1 6.7 6.8 7.0 7.1 8.4 8.0 8.5 8.9 7.5 7.2 7.1 6.7 6.2 4.8
4.6 4.3 4.9 5.5 5.3 4.9 5.1 5.7 4.6 5.4 5.1 4.5 3.9 4.3 3.6 3.7 3.2 3.5 3.7 3.7 3.3 3.2 2.6 2.2 2.3 2.2 2.4 3.3 3.7 5.4 6.3 6.9 7.9 7.5 8.2 8.2 8.3 8.4 6.8 6.5 6.4 6.0 5.1
Wind_Speed
12 21 23 22 19 18 17 15 14 16 16 18 21 22 22 22 23 22 20 17 16 21 20 18 20 19 18 18 17 16 17 16 15 14 13 12 15 17 11 10 9 14 11
17 25 23 23 19 18 18 14 13 15 17 20 22 23 22 23 23 21 20 18 18 19 19 17 19 18 17 16 15 15 15 14 14 10 11 14 15 17 15 13 14 13 13
18 24 24 22 20 18 17 14 14 16 18 20 22 23 24 24 23 22 20 20 18 19 19 17 17 15 13 13 13 12 12 11 10 8 5 13 14 13 14 13 15 14 13
18 23 23 21 21 18 17 15 13 16 19 21 21 23 23 24 23 21 21 20 19 18 18 16 15 13 13 12 12 12 12 11 8 1 8 10 12 11 11 11 12 13 13
17 23 22 22 21 19 18 15 12 14 19 20 21 23 23 23 22 20 19 19 19 19 16 16 13 13 14 14 13 12 12 10 6 8 10 9 11 11 9 8 9 11 14
17 20 24 22 21 20 18 16 13 15 19 22 23 24 23 23 20 19 18 18 18 17 17 15 13 14 13 13 12 11 10 6 2 10 9 9 11 10 9 9 9 9 10
17 19 24 23 22 21 19 17 15 17 18 21 23 22 21 21 20 18 16 17 17 16 16 14 14 14 12 11 11 10 8 4 8 8 8 9 10 9 9 9 9 9 9
17 20 23 22 23 21 20 19 16 16 18 20 21 21 20 20 19 17 16 15 15 16 16 14 13 12 11 10 9 8 6 3 5 7 6 8 7 7 8 8 7 8 8
17 18 21 24 22 20 19 20 19 17 16 17 19 19 20 19 18 17 16 15 14 15 15 14 11 10 9 9 7 5 4 0 2 5 4 5 5 5 6 6 6 6 7
16 16 16 22 22 22 21 18 19 18 17 17 18 21 21 18 17 15 15 14 14 13 13 12 11 9 7 7 5 4 3 2 1 1 2 6 1 3 3 3 3 4 5
12 14 16 17 20 21 21 19 18 19 18 19 20 24 19 16 17 17 14 13 12 12 11 10 9 8 7 5 4 3 5 1 0 1 2 5 1 1 1 1 1 0 1
12 13 12 15 16 19 18 22 18 18 18 18 19 18 16 15 14 12 13 11 10 10 9 9 8 7 7 6 6 5 5 2 2 1 1 3 4 4 4 5 5 5 3
8 7 9 14 17 17 13 17 15 15 15 15 16 16 13 12 12 11 12 11 10 9 9 9 7 7 5 4 4 4 3 3 2 2 1 3 6 7 8 7 9 9 7
9 11 9 13 14 15 15 11 16 11 12 12 13 14 13 9 10 9 9 8 8 9 7 6 5 5 5 5 4 3 3 3 3 2 2 5 7 8 10 10 10 11 10
9 7 12 12 14 12 12 10 10 10 11 11 13 13 12 10 7 9 8 8 7 6 6 6 5 5 5 5 5 5 5 5 4 4 5 5 8 9 10 12 13 13 11
12 4 6 13 13 13 11 11 9 12 13 12 9 11 10 9 9 8 7 6 6 6 6 6 5 5 5 5 4 4 4 5 5 5 5 6 8 10 10 12 13 14 11
16 10 4 6 10 14 14 12 10 11 13 12 12 14 12 10 8 8 6 5 7 8 7 7 6 5 4 5 5 4 5 5 5 7 7 7 6 6 7 10 11 14 12
15 12 11 9 8 11 11 11 10 14 12 11 13 13 14 13 11 9 5 5 7 8 7 6 5 5 5 4 4 4 4 5 7 8 7 10 9 11 8 9 9 11 11
16 18 13 10 10 9 11 8 11 14 11 12 12 12 13 13 12 10 8 8 9 8 6 6 5 6 5 5 4 4 4 5 5 6 8 9 11 11 12 7 7 8 7
14 17 15 12 11 10 7 7 7 9 8 12 11 11 13 12 13 12 9 10 9 6 6 6 7 6 4 3 4 5 5 5 5 5 7 9 8 7 7 7 8 3 1
12 11 13 13 11 8 7 7 6 6 7 7 7 10 12 11 12 10 8 8 9 7 8 8 6 6 5 4 4 5 4 6 6 3 3 3 5 6 6 6 4 2 7
10 6 5 8 14 10 5 4 2 3 4 5 5 6 9 10 10 8 7 7 8 7 8 8 7 5 4 3 3 3 4 4 2 1 1 2 3 4 4 4 3 2 3
5 11 10 9 9 3 6 4 4 3 3 3 3 2 2 4 5 6 8 4 4 6 4 3 2 1 3 1 2 3 3 3 4 2 1 1 2 2 2 2 3 3 4
16 12 10 10 9 5 6 6 7 7 4 4 4 5 3 8 3 7 7 8 5 5 5 4 3 2 2 3 2 3 4 4 4 4 2 1 1 2 2 1 0 2 3
15 15 14 13 10 8 8 6 5 3 2 3 4 4 4 5 6 7 11 11 7 3 4 5 5 4 2 2 3 3 4 4 5 5 6 3 2 1 2 2 2 2 1
7 7 9 13 12 10 11 10 8 13 10 6 5 5 3 5 5 6 8 10 8 7 8 7 8 6 5 5 1 3 5 3 4 4 5 6 5 4 3 3 3 3 3
Wind_Direction
167 154 154 143 150 149 149 148 151 156 157 146 142 141 140 135 128 126 123 127 124 123 117 123 107 99 93 97 95 88 82 75 82 83 85 81 74 65 93 64 77 73 65
160 153 151 145 153 152 150 143 141 154 158 149 146 143 143 138 132 128 127 129 124 119 124 118 111 106 100 95 94 92 85 76 75 76 100 97 72 70 82 62 61 72 64
160 155 155 153 151 153 148 141 136 156 159 155 152 149 145 139 131 130 130 132 129 128 125 115 107 105 105 100 96 95 90 79 72 71 4 82 78 67 67 57 66 69 66
161 155 158 155 151 152 147 142 130 156 158 160 155 150 146 139 132 131 133 134 134 127 119 118 115 107 108 107 97 95 92 88 78 52 79 75 78 66 69 65 67 67 75
165 163 148 155 150 152 148 143 126 147 159 158 155 147 142 132 126 133 135 133 132 121 126 112 113 111 104 102 101 97 94 89 90 87 77 75 78 75 77 74 78 62 52
164 164 144 152 151 150 146 140 128 121 158 159 148 143 132 123 132 135 133 128 130 127 114 113 114 124 111 106 103 101 96 95 102 81 83 77 73 76 74 73 67 60 57
172 160 158 156 150 149 142 138 135 119 126 136 131 127 124 124 134 133 131 131 132 128 120 118 114 120 116 113 112 109 105 90 89 89 86 80 77 76 74 72 68 63 55
168 163 158 156 150 147 143 139 138 133 124 130 126 116 124 130 131 136 133 137 141 132 131 124 120 118 120 126 122 123 122 129 106 88 83 81 73 75 73 70 67 63 59
169 172 161 159 152 148 146 143 142 140 131 127 125 128 130 128 137 137 143 145 146 142 138 131 128 124 122 120 127 133 132 58 70 88 92 102 76 75 72 67 62 60 57
181 171 164 160 159 158 153 147 143 139 140 139 135 132 134 132 142 141 141 144 145 140 136 139 136 130 122 119 119 125 151 207 83 154 131 88 65 79 74 69 60 55 55
189 173 175 161 159 160 154 149 145 142 141 143 129 131 138 149 154 151 141 148 140 142 144 143 138 132 132 128 134 163 215 227 243 217 190 129 234 226 192 198 229 185 92
189 176 177 160 161 163 155 159 152 146 153 156 155 155 163 157 155 154 144 148 145 143 139 143 143 149 188 173 166 190 217 208 251 269 196 175 239 250 242 236 240 236 222
194 177 171 164 166 167 162 157 155 160 155 154 159 164 159 158 151 159 153 164 164 175 171 177 177 197 193 194 190 208 223 233 242 241 176 223 240 244 248 247 248 248 233
337 194 157 163 164 166 163 168 160 162 162 151 158 160 159 162 164 163 170 170 180 186 184 194 196 204 201 204 207 224 222 246 246 247 220 238 255 260 257 256 260 264 264
261 216 161 178 163 160 162 164 167 149 165 157 158 167 165 168 168 166 171 178 182 188 196 193 201 202 206 213 220 233 235 240 249 251 264 233 262 265 267 268 266 265 269
227 238 175 183 167 162 159 163 170 173 165 160 172 171 177 177 175 176 174 183 189 202 195 202 199 210 216 222 236 239 254 252 255 252 264 263 249 270 266 266 273 269 265
182 177 228 216 176 165 164 160 165 174 177 175 180 180 181 182 183 181 192 190 193 193 195 203 203 224 229 219 238 240 242 262 260 271 267 289 293 250 278 268 268 279 285
163 157 218 219 210 184 177 169 166 169 176 189 190 191 189 185 186 194 209 209 197 201 202 205 206 217 225 218 233 237 244 252 275 289 292 291 285 294 270 250 278 292 297
158 167 187 227 227 211 201 185 165 167 176 183 189 194 195 196 193 204 212 219 201 208 212 210 207 223 212 214 230 246 258 274 278 277 282 292 289 289 291 286 278 285 287
171 171 179 205 219 208 193 183 178 164 176 179 188 195 191 200 199 206 222 231 211 210 215 206 214 209 235 244 248 264 268 271 278 285 300 302 314 306 300 297 286 244 320
164 177 189 179 182 182 180 175 180 183 174 181 188 196 199 206 205 208 226 238 221 220 217 215 206 214 218 235 261 264 270 274 299 302 311 342 356 351 358 346 315 205 103
174 195 219 220 192 176 175 189 157 144 192 173 186 203 212 211 210 214 228 246 235 223 218 210 209 220 219 206 271 298 285 278 117 112 338 347 339 342 11 28 64 85 130
196 219 231 239 253 173 142 160 185 128 123 143 164 186 213 223 213 201 210 211 233 223 200 114 70 352 228 144 285 270 285 271 317 191 236 329 313 327 34 51 96 121 125
215 225 232 237 232 209 162 191 198 228 214 145 160 146 115 94 150 181 186 172 162 166 156 135 137 113 356 306 262 258 264 280 267 293 180 196 19 344 2 30 228 125 125
207 218 219 226 219 210 197 160 184 217 244 232 206 132 121 80 178 182 178 155 142 131 138 143 131 146 155 229 270 260 247 240 247 257 277 238 257 220 289 289 266 243 179
182 205 212 217 228 226 225 210 189 232 236 239 226 219 159 184 176 177 168 154 151 169 163 180 183 178 178 161 150 263 251 252 231 246 261 275 274 278 253 243 235 233 226